STARLINK-36489, 67328

Orbit data source: Space-Track

STARLINK-36489, 67328 is a payload satellite owned by SpaceX/Seattle (US) in LEO that was launched on Sun, 04 Jan 2026 UTC via an FALCON 9 launch vehicle from the Air Force Eastern Test Range (AFETR). Payload-class satellites include a variety of spacecraft equipped with specific instruments for various scientific and technological missions. These include communications satellites like Starlink; space stations such as the ISS; scientific satellites like the Hubble; Earth observation satellites from companies like Planet Labs, Umbra, and HawkEye 360; GPS; miniature CubeSats for education and research; and military/defense satellites.

Loading next visibility...
Identifier
67328, 2026-002Z
Orbit
LEO
Country
Flag of USUS
Related business
Manufacturer
SpaceX/Seattle
Mission
Operational Commercial Communications
Bus & Motor
STARLINK V2MO, Unknown motor
Mass
575 kg wet, ~530 kg dry
Launch date (UTC)
2026-01-04 (5 months ago)
Launch vehicle
FALCON 9
Launch site
Air Force Eastern Test Range (AFETR)
Object type
Payload
Rocket body
Debris
Shape & HBR
Box + 2 Pan, 17.7 m
Radar Cross Section
36.964 m², Large (>1 m²)

Expand to show TLE details & history
Last TLE update: 17 hours ago

TLE from 17 hours ago
0 STARLINK-36489
1 67328U 26002Z   26171.19501996  .00011237  00000-0  41699-3 0  9999
2 67328  43.0010 106.5576 0000880 264.3382  95.7369 15.27600250 26915
Epoch: 2026-06-20T04:40Z
TLE epoch observation values (Epoch: 2026-06-20T04:40:49.724Z)
Latitude
-0.00004°
Longitude
127.93724°
Altitude
482.824 km
Speed
7.626 km/s
True Right ascension
07h 06m 13s
True Declination
0° 00' 00"
Sunlit
Object was in daylight at epoch
Visualization orbit readout
Latitude
Unknown
Longitude
Unknown
Altitude
Unknown
Speed
Unknown
Apparent Right ascension
Unknown
Apparent Declination
Unknown
Sunlit
N/A
Visualization observer readout
Local Sidereal Time
08:42:13
Azimuth
Unknown
Elevation
Unknown
Doppler factor
Unknown
Orbital elements
Apogee altitude
485.537 km
Perigee altitude
484.33 km
Semi-major axis
6,863.07 km
Eccentricity
0.00009
Inclination
43.001°
RAAN
106.5576°
Arg. of periapsis
264.3382°
True anomaly
95.74693°
Mean anomaly
95.7369°
Eccentric anomaly
95.74192°
Mean motion
3.81738 °/min
Orbital period
94.31 mins
BSTAR
0.00041699
Loading maneuver chart data...
Computing Atmospheric mass density...
Loading historical data...
Loading historical data...
Loading historical data...
Loading historical data...
Loading historical data...
Loading historical data...
Loading historical data...

Documentation

Showing up to 5 results
|